Location: Northcutt
(34.7304°N, 84.4305°W)
Time: 03:04:11
(UTC+00:00)

A-11 Canister half - Pass Details

Date: 04 October 2022
Orbit: 1524 x 1685 km, 47.3° (Epoch: 01 December)

Event Time Altitude Azimuth Distance (km) Brightness Sun altitude
Rises 20:45:47 0° 248° (WSW) 4,672 12.7 28.8°
Reaches altitude 10° 20:48:53 10° 252° (WSW) 3,685 12.6 28.3°
Maximum altitude 20:58:03 62° 332° (NNW) 1,687 9.7 26.6°
Drops below altitude 10° 21:07:20 10° 53° (NE) 3,732 10.6 24.9°
Sets 21:10:30 0° 57° (ENE) 4,734 11.0 24.3°
